Welcome to Des Moines Iowa Weather. I am an independent private personal weather station on the Northwest Side of Des Moines, Iowa. Just East of Windsor Heights and just West of Glendale . This site is also mobile friendly.

There are no active watches, warnings or advisories


Visit our other weather sites:

Historical Data

Weather Station Setup



Weather Underground History page Text

Daily Summary for January 16, 2018 Units:  Metric    English   Both
« Previous Day
Next Day »
Daily Weekly Monthly Yearly Custom
  High: Low: Average:
Temperature: -14.4 °C -21.1 °C -17.8 °C
Dew Point: -17.8 °C -24.4 °C -20.5 °C
Humidity: 86 % 74 % 80 %
Wind Speed: 16.1 km/h 0 km/h 4.5 km/h
Wind Gust: 25.7 km/h - -
Wind:- - WNW
Pressure: 1044.2 hPa 1039.8 hPa -
Precipitation: 0 mm    
Historical Graphs
 
 
Tabular Data for January 16, 2018
Time Temperature Dew Point Pressure Wind Wind Speed Wind Gust Humidity Rainfall Rate (Hourly)
00:10 -20.8 °C -24.4 °C 1039.8 hPa WNW 4.8 km/h 25.7 km/h 75 % 0 mm
00:25 -20.9 °C -24.4 °C 1040.2 hPa NW 16.1 km/h 20.9 km/h 75 % 0 mm
00:40 -20.9 °C -23.9 °C 1039.8 hPa NNW 8 km/h 16.1 km/h 76 % 0 mm
00:55 -21 °C -24.4 °C 1040.2 hPa NW 4.8 km/h 19.3 km/h 76 % 0 mm
01:10 -21.1 °C -24.4 °C 1039.8 hPa North 6.4 km/h 17.7 km/h 76 % 0 mm
01:25 -21.1 °C -24.4 °C 1040.2 hPa North 4.8 km/h 14.5 km/h 76 % 0 mm
01:40 -21.1 °C -23.9 °C 1040.2 hPa North 9.7 km/h 14.5 km/h 77 % 0 mm
01:55 -21.1 °C -23.9 °C 1040.2 hPa NW 11.3 km/h 17.7 km/h 77 % 0 mm
02:10 -21.1 °C -23.9 °C 1040.5 hPa NW 4.8 km/h 14.5 km/h 78 % 0 mm
02:26 -21.1 °C -23.9 °C 1040.5 hPa NW 1.6 km/h 14.5 km/h 78 % 0 mm
02:41 -21.1 °C -23.9 °C 1040.5 hPa NW 9.7 km/h 14.5 km/h 78 % 0 mm
02:56 -21.1 °C -23.9 °C 1040.5 hPa NNW 14.5 km/h 17.7 km/h 78 % 0 mm
03:11 -21 °C -23.9 °C 1040.9 hPa NW 8 km/h 19.3 km/h 78 % 0 mm
03:26 -20.7 °C -23.3 °C 1040.9 hPa NNW 12.9 km/h 16.1 km/h 78 % 0 mm
03:41 -20.3 °C -22.8 °C 1040.9 hPa NW 6.4 km/h 17.7 km/h 79 % 0 mm
03:56 -20.1 °C -22.8 °C 1041.2 hPa NW 4.8 km/h 16.1 km/h 79 % 0 mm
04:11 -19.8 °C -22.8 °C 1040.9 hPa NW 9.7 km/h 16.1 km/h 79 % 0 mm
04:26 -19.7 °C -22.8 °C 1041.2 hPa WNW 8 km/h 22.5 km/h 79 % 0 mm
04:42 -19.9 °C -22.8 °C 1041.2 hPa NW 9.7 km/h 19.3 km/h 78 % 0 mm
04:56 -20.1 °C -22.8 °C 1041.5 hPa WNW 1.6 km/h 24.1 km/h 78 % 0 mm
05:12 -20.2 °C -23.3 °C 1041.5 hPa NW 6.4 km/h 20.9 km/h 78 % 0 mm
05:27 -20.2 °C -22.8 °C 1041.5 hPa WNW 3.2 km/h 17.7 km/h 79 % 0 mm
05:42 -20.2 °C -22.8 °C 1041.9 hPa NW 3.2 km/h 16.1 km/h 79 % 0 mm
05:57 -20.2 °C -22.8 °C 1041.9 hPa NW 3.2 km/h 19.3 km/h 81 % 0 mm
06:27 -20.1 °C -22.2 °C 1042.2 hPa WNW 8 km/h 16.1 km/h 82 % 0 mm
06:42 -20.1 °C -22.2 °C 1041.9 hPa WNW 6.4 km/h 14.5 km/h 82 % 0 mm
06:57 -20.1 °C -22.2 °C 1041.9 hPa WNW 6.4 km/h 14.5 km/h 82 % 0 mm
07:12 -20.2 °C -22.2 °C 1041.9 hPa NW 4.8 km/h 16.1 km/h 82 % 0 mm
07:27 -20 °C -22.2 °C 1042.2 hPa WNW 8 km/h 17.7 km/h 82 % 0 mm
07:42 -19.7 °C -22.2 °C 1042.2 hPa North 9.7 km/h 19.3 km/h 82 % 0 mm
07:57 -19.4 °C -21.7 °C 1042.5 hPa NW 6.4 km/h 22.5 km/h 82 % 0 mm
08:12 -19.4 °C -21.7 °C 1042.5 hPa NW 8 km/h 19.3 km/h 81 % 0 mm
08:27 -19.3 °C -21.7 °C 1042.9 hPa North 4.8 km/h 16.1 km/h 81 % 0 mm
08:42 -19.3 °C -21.7 °C 1042.9 hPa NW 1.6 km/h 17.7 km/h 81 % 0 mm
08:58 -19.1 °C -21.7 °C 1043.2 hPa WNW 4.8 km/h 14.5 km/h 81 % 0 mm
09:13 -18.8 °C -21.1 °C 1043.6 hPa North 3.2 km/h 19.3 km/h 81 % 0 mm
09:28 -18.6 °C -21.1 °C 1043.6 hPa WNW 3.2 km/h 16.1 km/h 81 % 0 mm
09:43 -18.3 °C -20.6 °C 1043.9 hPa NW 11.3 km/h 16.1 km/h 82 % 0 mm
09:58 -17.9 °C -20 °C 1043.9 hPa NW 9.7 km/h 17.7 km/h 83 % 0 mm
10:13 -17.5 °C -20 °C 1043.9 hPa NW 8 km/h 12.9 km/h 83 % 0 mm
10:28 -17.3 °C -20 °C 1043.9 hPa NW 3.2 km/h 20.9 km/h 81 % 0 mm
10:43 -16.8 °C -19.4 °C 1044.2 hPa NW 6.4 km/h 16.1 km/h 79 % 0 mm
10:58 -16.5 °C -19.4 °C 1043.9 hPa North 4.8 km/h 17.7 km/h 77 % 0 mm
11:13 -16.1 °C -19.4 °C 1043.9 hPa NW 3.2 km/h 17.7 km/h 77 % 0 mm
11:28 -16.2 °C -19.4 °C 1043.6 hPa WNW 3.2 km/h 14.5 km/h 76 % 0 mm
11:43 -15.7 °C -18.9 °C 1043.6 hPa WNW 3.2 km/h 16.1 km/h 76 % 0 mm
11:58 -15.3 °C -18.9 °C 1043.2 hPa NW 6.4 km/h 12.9 km/h 76 % 0 mm
12:14 -14.7 °C -18.3 °C 1042.9 hPa NW 6.4 km/h 12.9 km/h 76 % 0 mm
12:29 -14.8 °C -18.3 °C 1042.9 hPa NW 4.8 km/h 14.5 km/h 74 % 0 mm
12:44 -14.4 °C -17.8 °C 1042.5 hPa NW 4.8 km/h 9.7 km/h 75 % 0 mm
12:59 -14.4 °C -17.8 °C 1042.5 hPa North 1.6 km/h 14.5 km/h 75 % 0 mm
13:14 -14.4 °C -17.8 °C 1042.5 hPa SW 4.8 km/h 16.1 km/h 75 % 0 mm
13:29 -14.4 °C -17.8 °C 1042.5 hPa North 4.8 km/h 16.1 km/h 76 % 0 mm
13:44 -14.7 °C -17.8 °C 1042.5 hPa North 8 km/h 24.1 km/h 77 % 0 mm
13:59 -14.6 °C -17.8 °C 1042.5 hPa NW 8 km/h 19.3 km/h 78 % 0 mm
14:14 -14.7 °C -17.8 °C 1042.5 hPa NW 8 km/h 17.7 km/h 79 % 0 mm
14:29 -14.8 °C -17.8 °C 1042.5 hPa NW 4.8 km/h 19.3 km/h 78 % 0 mm
14:44 -14.7 °C -17.8 °C 1042.5 hPa West 3.2 km/h 12.9 km/h 78 % 0 mm
14:59 -14.8 °C -17.8 °C 1042.5 hPa NW 8 km/h 16.1 km/h 78 % 0 mm
15:14 -14.8 °C -17.8 °C 1042.5 hPa NW 3.2 km/h 11.3 km/h 78 % 0 mm
15:29 -14.8 °C -17.8 °C 1042.5 hPa NW 3.2 km/h 16.1 km/h 78 % 0 mm
15:45 -15.1 °C -18.3 °C 1042.5 hPa NW 4.8 km/h 19.3 km/h 78 % 0 mm
16:00 -15.1 °C -17.8 °C 1042.5 hPa NW 1.6 km/h 11.3 km/h 79 % 0 mm
16:15 -15 °C -17.8 °C 1042.5 hPa NW 12.9 km/h 12.9 km/h 79 % 0 mm
16:30 -15.1 °C -17.8 °C 1042.5 hPa WNW 3.2 km/h 12.9 km/h 79 % 0 mm
16:45 -15.2 °C -17.8 °C 1042.5 hPa NW 4.8 km/h 14.5 km/h 80 % 0 mm
17:00 -15.4 °C -18.3 °C 1042.5 hPa NW 1.6 km/h 6.4 km/h 80 % 0 mm
17:15 -15.7 °C -18.3 °C 1042.5 hPa NW 3.2 km/h 12.9 km/h 80 % 0 mm
17:30 -15.8 °C -18.3 °C 1042.5 hPa NW 3.2 km/h 4.8 km/h 80 % 0 mm
17:45 -16 °C -18.3 °C 1042.5 hPa NW 1.6 km/h 4.8 km/h 81 % 0 mm
18:00 -16.2 °C -18.9 °C 1042.5 hPa Calm   6.4 km/h 81 % 0 mm
18:15 -16.3 °C -18.9 °C 1042.5 hPa Calm   4.8 km/h 81 % 0 mm
18:30 -16.5 °C -18.9 °C 1042.5 hPa Calm   1.6 km/h 82 % 0 mm
18:45 -16.7 °C -18.9 °C 1042.5 hPa Calm   3.2 km/h 82 % 0 mm
19:01 -16.8 °C -19.4 °C 1042.2 hPa Calm     82 % 0 mm
19:16 -16.9 °C -19.4 °C 1042.5 hPa Calm   1.6 km/h 83 % 0 mm
19:31 -17.1 °C -19.4 °C 1042.5 hPa Calm     83 % 0 mm
19:46 -17.2 °C -19.4 °C 1042.2 hPa Calm     83 % 0 mm
20:01 -17.4 °C -19.4 °C 1041.9 hPa Calm     83 % 0 mm
20:16 -17.6 °C -20 °C 1041.9 hPa Calm     83 % 0 mm
20:31 -17.7 °C -20 °C 1041.9 hPa Calm     84 % 0 mm
20:46 -17.7 °C -20 °C 1041.9 hPa Calm     84 % 0 mm
21:01 -17.7 °C -19.4 °C 1041.9 hPa Calm     85 % 0 mm
21:16 -17.7 °C -19.4 °C 1041.9 hPa Calm     85 % 0 mm
21:31 -17.7 °C -19.4 °C 1041.9 hPa Calm   3.2 km/h 85 % 0 mm
21:46 -17.6 °C -19.4 °C 1041.5 hPa Calm     85 % 0 mm
22:01 -17.6 °C -19.4 °C 1041.5 hPa Calm     85 % 0 mm
22:17 -17.6 °C -19.4 °C 1041.2 hPa Calm     86 % 0 mm
22:32 -17.7 °C -19.4 °C 1041.2 hPa Calm     85 % 0 mm
22:47 -17.8 °C -19.4 °C 1041.2 hPa Calm     85 % 0 mm
23:02 -17.9 °C -20 °C 1041.2 hPa Calm     85 % 0 mm
23:17 -18.1 °C -20 °C 1041.2 hPa Calm     85 % 0 mm
23:32 -18.1 °C -20 °C 1040.9 hPa Calm     85 % 0 mm
23:47 -18.2 °C -20 °C 1040.9 hPa Calm     85 % 0 mm
Des Moines Weather and Climate
Compliments of Weather Underground - 3 mb

Script developed by  Jim McMurry - jmcmurry@mwt.net Adapted for the template by  Wim van der Kuil - Leuven-Template.eu

You find our weather info also at:

Weather Underground

Equipment we use:

Weather-station
Davis VP2 Plus

Weather-program
Davis Weatherlink.Com

Weather-server
iMac (Retina 4K, 21.5-inch, Late 2015)

Provider
Hostmonster.com

Davis VP2 Plus

Davis Weatherlink.Com

iMac (Retina 4K, 21.5-inch, Late 2015)

Hostmonster.com